Location: *
(50.3194°N, 7.1067°E)
Time: 09:53:01
(UTC+00:00)

Meteor 1-24 Rocket - Pass Details

Date: 22 September 2019
Orbit: 791 x 926 km, 81.2° (Epoch: 14 October)

Event Time Altitude Azimuth Distance (km) Brightness Sun altitude
Rises 18:50:16 0° 350° (N) 3,463 7.3 -13.4°
Reaches altitude 10° 18:52:45 10° 355° (N) 2,542 6.5 -13.7°
Maximum altitude 18:58:25 53° 72° (ENE) 1,097 4.0 -14.6°
Enters shadow 19:03:13 15° 146° (SE) 2,241 5.4 -15.3°
